Total_Precipitation_Accumulation
0.05 0.05 0.05 0.04 0.03 0.02 0.01 0.01 0.01 0.00 0.00 0.00 0.00 0.00 0.00 0.00 0.00 0.01 0.02 0.02 0.03 0.04 0.05 0.06 0.07 0.07 0.08 0.07 0.07 0.08 0.09 0.13 0.17 0.09 0.04 0.04 0.06 0.08 0.11 0.14 0.14 0.12 0.11
0.06 0.05 0.04 0.03 0.02 0.01 0.01 0.01 0.01 0.00 0.00 0.00 0.00 0.00 0.00 0.00 0.01 0.02 0.03 0.03 0.05 0.05 0.05 0.05 0.05 0.06 0.08 0.07 0.06 0.06 0.08 0.12 0.20 0.18 0.11 0.08 0.08 0.10 0.12 0.13 0.10 0.09 0.11
0.04 0.03 0.02 0.01 0.01 0.01 0.01 0.01 0.00 0.01 0.01 0.00 0.00 0.01 0.01 0.01 0.02 0.03 0.04 0.04 0.04 0.03 0.03 0.03 0.04 0.05 0.06 0.05 0.06 0.08 0.09 0.12 0.17 0.20 0.13 0.10 0.08 0.07 0.12 0.14 0.14 0.15 0.10
0.02 0.01 0.01 0.01 0.01 0.01 0.01 0.01 0.01 0.01 0.01 0.01 0.01 0.01 0.01 0.02 0.02 0.02 0.02 0.01 0.01 0.01 0.01 0.02 0.03 0.05 0.07 0.09 0.08 0.09 0.11 0.13 0.14 0.15 0.12 0.09 0.07 0.07 0.13 0.20 0.19 0.15 0.12
0.02 0.01 0.01 0.01 0.01 0.01 0.01 0.01 0.01 0.01 0.01 0.01 0.01 0.01 0.01 0.01 0.01 0.00 0.00 0.00 0.00 0.01 0.01 0.02 0.03 0.05 0.10 0.12 0.12 0.11 0.13 0.14 0.15 0.17 0.15 0.11 0.07 0.09 0.15 0.20 0.20 0.14 0.10
0.04 0.03 0.03 0.02 0.02 0.02 0.01 0.01 0.01 0.01 0.01 0.01 0.00 0.00 0.00 0.00 0.00 0.00 0.00 0.00 0.00 0.01 0.02 0.03 0.02 0.03 0.05 0.07 0.08 0.11 0.14 0.17 0.20 0.21 0.18 0.12 0.07 0.12 0.19 0.26 0.26 0.21 0.14
0.06 0.06 0.05 0.04 0.04 0.03 0.02 0.01 0.01 0.01 0.01 0.00 0.00 0.00 0.00 0.00 0.00 0.00 0.00 0.00 0.01 0.03 0.04 0.04 0.03 0.03 0.05 0.06 0.06 0.07 0.08 0.13 0.21 0.28 0.26 0.16 0.13 0.19 0.30 0.32 0.25 0.22 0.18
0.11 0.09 0.07 0.05 0.04 0.02 0.01 0.01 0.00 0.00 0.00 0.00 0.00 0.00 0.01 0.01 0.00 0.00 0.00 0.01 0.02 0.03 0.04 0.05 0.06 0.07 0.06 0.07 0.05 0.05 0.07 0.12 0.21 0.26 0.27 0.23 0.25 0.30 0.36 0.35 0.28 0.23 0.18
0.10 0.07 0.04 0.03 0.02 0.01 0.00 0.00 0.00 0.00 0.00 0.01 0.00 0.01 0.01 0.02 0.00 0.00 0.00 0.01 0.01 0.01 0.02 0.02 0.05 0.05 0.07 0.09 0.08 0.07 0.10 0.15 0.23 0.36 0.41 0.45 0.48 0.45 0.38 0.31 0.29 0.27 0.26
0.04 0.02 0.01 0.00 0.00 0.00 0.00 0.00 0.00 0.01 0.00 0.00 0.00 0.01 0.02 0.04 0.01 0.00 0.01 0.01 0.02 0.01 0.01 0.01 0.04 0.07 0.09 0.10 0.08 0.11 0.15 0.22 0.38 0.53 0.59 0.61 0.53 0.45 0.40 0.34 0.33 0.34 0.35
0.01 0.01 0.00 0.00 0.00 0.00 0.00 0.00 0.00 0.00 0.01 0.00 0.01 0.01 0.03 0.03 0.01 0.00 0.01 0.02 0.03 0.04 0.05 0.06 0.07 0.12 0.13 0.10 0.11 0.16 0.26 0.39 0.58 0.73 0.68 0.53 0.39 0.29 0.27 0.27 0.26 0.29 0.33
0.00 0.00 0.00 0.00 0.00 0.00 0.00 0.00 0.00 0.01 0.01 0.01 0.01 0.01 0.02 0.02 0.02 0.01 0.00 0.01 0.03 0.06 0.10 0.10 0.13 0.18 0.16 0.15 0.18 0.29 0.40 0.55 0.65 0.69 0.56 0.40 0.29 0.23 0.21 0.19 0.19 0.21 0.24
0.00 0.00 0.00 0.00 0.00 0.00 0.00 0.00 0.00 0.00 0.01 0.01 0.01 0.01 0.01 0.02 0.02 0.01 0.01 0.01 0.03 0.06 0.13 0.19 0.22 0.21 0.22 0.25 0.35 0.47 0.53 0.56 0.61 0.54 0.40 0.33 0.27 0.22 0.19 0.18 0.18 0.19 0.21
0.00 0.01 0.01 0.01 0.00 0.00 0.00 0.00 0.00 0.01 0.01 0.01 0.02 0.02 0.03 0.02 0.03 0.03 0.02 0.03 0.06 0.08 0.13 0.23 0.32 0.34 0.36 0.41 0.46 0.50 0.50 0.58 0.56 0.39 0.29 0.26 0.24 0.21 0.20 0.18 0.18 0.19 0.21
0.00 0.01 0.01 0.01 0.00 0.00 0.00 0.00 0.00 0.01 0.01 0.02 0.03 0.03 0.05 0.05 0.04 0.05 0.07 0.08 0.11 0.14 0.16 0.22 0.27 0.32 0.37 0.41 0.41 0.43 0.43 0.42 0.41 0.33 0.28 0.25 0.23 0.21 0.21 0.20 0.18 0.17 0.19
0.01 0.01 0.01 0.00 0.01 0.00 0.01 0.01 0.01 0.00 0.00 0.01 0.02 0.02 0.03 0.05 0.04 0.03 0.05 0.08 0.12 0.16 0.18 0.26 0.36 0.43 0.47 0.48 0.44 0.42 0.40 0.36 0.34 0.32 0.29 0.26 0.24 0.22 0.22 0.21 0.19 0.18 0.19
0.00 0.00 0.00 0.00 0.00 0.00 0.01 0.02 0.04 0.03 0.01 0.01 0.01 0.02 0.02 0.03 0.03 0.02 0.03 0.06 0.09 0.13 0.16 0.28 0.41 0.53 0.56 0.52 0.44 0.40 0.43 0.43 0.42 0.37 0.30 0.26 0.24 0.22 0.20 0.19 0.18 0.18 0.18
0.00 0.00 0.00 0.00 0.00 0.00 0.01 0.02 0.04 0.06 0.06 0.06 0.03 0.01 0.02 0.03 0.04 0.03 0.03 0.04 0.06 0.10 0.20 0.33 0.44 0.50 0.52 0.52 0.46 0.43 0.46 0.48 0.46 0.38 0.31 0.27 0.23 0.19 0.17 0.18 0.18 0.15 0.13
0.00 0.00 0.00 0.00 0.00 0.00 0.01 0.02 0.04 0.05 0.06 0.05 0.04 0.02 0.02 0.03 0.04 0.05 0.05 0.05 0.09 0.16 0.24 0.32 0.40 0.41 0.39 0.39 0.37 0.37 0.40 0.45 0.42 0.35 0.30 0.27 0.22 0.18 0.18 0.16 0.13 0.11 0.09
0.00 0.00 0.00 0.00 0.00 0.00 0.00 0.01 0.03 0.04 0.05 0.06 0.05 0.03 0.03 0.04 0.05 0.07 0.07 0.06 0.09 0.14 0.21 0.29 0.36 0.34 0.30 0.27 0.26 0.25 0.28 0.31 0.30 0.27 0.24 0.22 0.20 0.18 0.17 0.14 0.11 0.09 0.07
0.00 0.00 0.00 0.00 0.00 0.00 0.00 0.00 0.02 0.03 0.04 0.05 0.05 0.05 0.07 0.06 0.08 0.11 0.13 0.15 0.16 0.17 0.18 0.20 0.25 0.29 0.27 0.23 0.20 0.18 0.19 0.20 0.20 0.20 0.20 0.20 0.19 0.17 0.13 0.10 0.07 0.05 0.04
0.00 0.00 0.00 0.00 0.00 0.00 0.00 0.00 0.00 0.01 0.03 0.03 0.04 0.04 0.08 0.07 0.09 0.12 0.17 0.22 0.24 0.23 0.21 0.19 0.19 0.22 0.25 0.25 0.19 0.16 0.15 0.17 0.17 0.18 0.18 0.18 0.17 0.14 0.10 0.07 0.04 0.03 0.02
0.00 0.00 0.00 0.00 0.00 0.00 0.00 0.00 0.00 0.00 0.01 0.02 0.04 0.05 0.05 0.07 0.09 0.13 0.17 0.22 0.25 0.25 0.21 0.18 0.19 0.22 0.24 0.25 0.21 0.15 0.13 0.14 0.14 0.15 0.16 0.17 0.15 0.11 0.07 0.04 0.03 0.02 0.01
0.00 0.00 0.00 0.00 0.00 0.00 0.00 0.00 0.00 0.00 0.00 0.01 0.02 0.04 0.05 0.07 0.09 0.12 0.16 0.20 0.22 0.24 0.24 0.23 0.23 0.24 0.24 0.23 0.20 0.13 0.10 0.11 0.11 0.12 0.13 0.13 0.12 0.09 0.05 0.03 0.02 0.01 0.01
0.00 0.00 0.00 0.00 0.00 0.00 0.00 0.00 0.00 0.00 0.00 0.00 0.00 0.01 0.02 0.04 0.06 0.08 0.11 0.15 0.17 0.20 0.20 0.20 0.22 0.21 0.19 0.17 0.14 0.10 0.09 0.10 0.11 0.11 0.11 0.11 0.10 0.08 0.05 0.03 0.02 0.02 0.01
0.00 0.00 0.00 0.00 0.00 0.00 0.00 0.00 0.00 0.00 0.00 0.00 0.00 0.00 0.01 0.01 0.03 0.05 0.05 0.06 0.08 0.12 0.15 0.17 0.18 0.16 0.12 0.08 0.07 0.07 0.07 0.05 0.04 0.05 0.08 0.11 0.10 0.07 0.05 0.04 0.02 0.01 0.01